Torna al catalogo

TITAN 34D TRANSTAGE DEB

AttivoHEO
NORAD 23038·DEBRIS·🇺🇸 United States

Lanciato Sep 2, 1988 da Cape Canaveral Space Force Station

Loading…

Prossimi Passaggi (prossime 24 ore)

TLE

AggiornatoSource: Space-Track

Epoca: Sep 13, 2026, 06:19 UTC

1 23038U 88077H   26256.26329544  .00005700  00000-0  40362-2 0  9991
2 23038  26.9728 335.6436 6802970 160.6914 249.0887  2.85937006 69150

Traccia TITAN 34D TRANSTAGE DEB in tempo reale con AllMySat

Download on the App Store